sat.trackr.live / text

‹ back to catalog

TIANMU-1 21

NORAD 58662 · 2023-208C

PAYLOAD ACTIVE UNKNOWN

§ Identity

Operator
Country
PRC
Launch date
2023-12-27
Launch site
JSC
Launch vehicle
Mass (kg)
RCS (m²)

Purposes: earth_obs

External: N2YO · Heavens-Above · Gunter

§ Orbital elements

Epoch: 2026-05-25T04:02:53.907072Z

Period
93.84 min
Inclination
97.4475°
Eccentricity
0.0007911
Mean motion
15.34598388 rev/d
Perigee alt
456.7 km
Apogee alt
467.5 km
Semi-major
6,840.3 km
B*
2.7362e-4
RAAN
264.5554°
Arg perigee
49.5203°
Mean anomaly
310.6728°
Rev number
13,403

§ Raw data

TIANMU-1 211 58662U 23208C   26145.16867948  .00009101  00000+0  27362-3 0  99922 58662  97.4475 264.5554 0007911  49.5203 310.6728 15.34598388134039

JSON: /api/v1/satellites/58662 · /tle

For live sub-satellite position, see the globe view (requires WebGL).

§ Visibility from observer

Set your observer location to see the next 7 days of passes ≥ 10°. The values pass through the URL so the page stays shareable.

No JS? Fill the form by hand. The geolocation button needs JavaScript.